Change the Weather History Date:

Saturday, November 17, 2012

  Actual Average (KLND) Record (KLND)
Temperature  
Mean Temperature 30 °F 30 °F  
Max Temperature 37 °F 42 °F 67 °F (2008)
Min Temperature 24 °F 19 °F -10 °F (1978)
Degree Days  
Heating Degree Days 34 35  
Month to date heating degree days 513  
Since 1 July heating degree days 1374  
Cooling Degree Days 0 0  
Month to date cooling degree days 0  
Year to date cooling degree days 472  
Moisture  
Dew Point 28 °F    
Average Humidity 88    
Maximum Humidity 100    
Minimum Humidity 65    
Precipitation  
Precipitation 0.00 in 0.03 in 0.72 in (1928)
Month to date precipitation 0.52  
Year to date precipitation 11.74  
Snow  
Snow - 0.50 in - ()
Month to date snowfall 7.3  
Since 1 July snowfall 19.8  
Since 1 September snowfall 19.8  
Snow Depth -    
Sea Level Pressure  
Sea Level Pressure 30.02 in    
Wind  
Wind Speed 7 mph ()    
Max Wind Speed 17 mph    
Max Gust Speed 22 mph    
Visibility 9.5 miles    
Events Snow    
T = Trace of Precipitation, MM = Missing Value Source: Averaged Metar Reports

Daily Weather History Graph

Daily Weather History Graph

Search for Another Location

Airport or City:

Trip Planner

Search our weather history database for the weather conditions in past years. The results will help you decide how hot, cold, wet, or windy it might be!

Date:

Astronomy

Nov. 17, 2012 Rise Set
Actual Time 7:09 AM MST 4:50 PM MST
Civil Twilight 6:38 AM MST 5:21 PM MST
Nautical Twilight 6:04 AM MST 5:55 PM MST
Astronomical Twilight 5:31 AM MST 6:28 PM MST
Moon 10:56 AM MST (11/17) 9:04 PM MST (11/17)
Length of Visible Light 10h 42m
Length of Day
9h 41m
Waxing Crescent, 21% of the Moon is Illuminated
Nov 17
Waxing Crescent
Nov 20
First Quarter
Nov 28
Full
Dec 6
Last Quarter
Dec 13
New

Hourly Weather History & Observations

Time (MST) Temp. Windchill Dew Point Humidity Pressure Visibility Wind Dir Wind Speed Gust Speed Precip Events Conditions
12:15 AM 30.2 °F 26.7 °F 24.8 °F 80% 30.07 in 10.0 mi West 3.5 mph - N/A   Mostly Cloudy
12:35 AM 30.2 °F 25.4 °F 26.6 °F 86% 30.07 in 10.0 mi West 4.6 mph - N/A   Overcast
12:55 AM 30.2 °F 22.6 °F 26.6 °F 86% 30.06 in 10.0 mi West 8.1 mph - N/A   Overcast
1:15 AM 32.0 °F 24.8 °F 26.6 °F 80% 30.06 in 10.0 mi WNW 8.1 mph - N/A   Overcast
1:35 AM 32.0 °F 27.5 °F 26.6 °F 80% 30.06 in 10.0 mi West 4.6 mph - N/A   Overcast
1:55 AM 32.0 °F 27.5 °F 26.6 °F 80% 30.06 in 10.0 mi West 4.6 mph - N/A   Overcast
2:15 AM 32.0 °F 27.5 °F 26.6 °F 80% 30.06 in 10.0 mi West 4.6 mph - N/A   Overcast
2:35 AM 32.0 °F 27.5 °F 26.6 °F 80% 30.07 in 10.0 mi West 4.6 mph - N/A   Overcast
2:55 AM 30.2 °F 26.7 °F 24.8 °F 80% 30.07 in 10.0 mi West 3.5 mph - N/A   Scattered Clouds
3:15 AM 32.0 °F 27.5 °F 23.0 °F 69% 30.07 in 10.0 mi WSW 4.6 mph - N/A   Scattered Clouds
3:35 AM 30.2 °F 25.4 °F 23.0 °F 75% 30.06 in 10.0 mi West 4.6 mph - N/A   Clear
3:55 AM 30.2 °F 25.4 °F 23.0 °F 75% 30.05 in 10.0 mi West 4.6 mph - N/A   Clear
4:15 AM 30.2 °F 24.3 °F 23.0 °F 75% 30.06 in 10.0 mi WNW 5.8 mph - N/A   Clear
4:55 AM 26.6 °F 21.2 °F 23.0 °F 86% 30.07 in 10.0 mi WSW 4.6 mph - N/A   Clear
5:15 AM 24.8 °F 16.9 °F 23.0 °F 93% - 10.0 mi West 6.9 mph - N/A   Clear
5:35 AM 26.6 °F 20.0 °F 23.0 °F 86% - 10.0 mi WNW 5.8 mph - N/A   Clear
5:55 AM 26.6 °F 18.2 °F 21.2 °F 80% - 10.0 mi WNW 8.1 mph - N/A   Clear
6:15 AM 28.4 °F 22.2 °F 23.0 °F 80% - 10.0 mi West 5.8 mph - N/A   Clear
6:35 AM 30.2 °F 24.3 °F 23.0 °F 75% - 10.0 mi West 5.8 mph - N/A   Clear
6:55 AM 30.2 °F 25.4 °F 23.0 °F 75% - 10.0 mi West 4.6 mph - N/A   Clear
7:15 AM 30.2 °F 21.9 °F 21.2 °F 69% - 10.0 mi WSW 9.2 mph - N/A   Clear
7:35 AM 26.6 °F 18.2 °F 21.2 °F 80% - 10.0 mi SW 8.1 mph - N/A   Clear
8:15 AM 26.6 °F 16.8 °F 23.0 °F 86% - 10.0 mi WSW 10.4 mph - N/A   Clear
8:35 AM 26.6 °F 15.7 °F 24.8 °F 93% - 10.0 mi WSW 12.7 mph - N/A   Clear
8:55 AM 30.2 °F 20.8 °F 24.8 °F 80% 30.07 in 10.0 mi WSW 11.5 mph - N/A   Clear
9:15 AM 32.0 °F 24.8 °F 24.8 °F 75% 30.07 in 10.0 mi SW 8.1 mph - N/A   Scattered Clouds
9:35 AM 32.0 °F 23.6 °F 26.6 °F 80% 30.07 in 10.0 mi SW 10.4 mph 17.3 mph N/A   Overcast
10:55 AM 33.8 °F 23.5 °F 26.6 °F 75% 30.06 in 10.0 mi WSW 16.1 mph 20.7 mph N/A   Overcast
11:15 AM 35.6 °F 25.5 °F 26.6 °F 70% 30.05 in 10.0 mi WSW 17.3 mph 21.9 mph N/A   Mostly Cloudy
11:35 AM 37.4 °F 29.8 °F 26.6 °F 65% 30.04 in 10.0 mi SW 11.5 mph 20.7 mph N/A   Mostly Cloudy
12:15 PM 33.8 °F 24.3 °F 30.2 °F 87% 30.04 in 10.0 mi SW 13.8 mph 20.7 mph N/A   Scattered Clouds
12:35 PM 33.8 °F 25.8 °F 30.2 °F 87% 30.03 in 10.0 mi SW 10.4 mph - N/A   Scattered Clouds
12:55 PM 32.0 °F 22.5 °F 30.2 °F 93% 30.04 in 10.0 mi SW 12.7 mph 17.3 mph N/A   Mostly Cloudy
1:15 PM 32.0 °F 24.2 °F 30.2 °F 93% 30.04 in 10.0 mi SW 9.2 mph - N/A   Overcast
1:35 PM 33.8 °F 26.4 °F 30.2 °F 87% 30.04 in 10.0 mi SW 9.2 mph - N/A   Overcast
2:15 PM 35.6 °F 29.9 °F 30.2 °F 81% 30.03 in 10.0 mi SW 6.9 mph - N/A   Overcast
2:35 PM 33.8 °F 27.0 °F 30.2 °F 87% 30.03 in 10.0 mi WSW 8.1 mph - N/A   Overcast
3:15 PM 33.8 °F 28.6 °F 30.2 °F 87% 30.02 in 10.0 mi SW 5.8 mph - N/A   Mostly Cloudy
3:35 PM 33.8 °F 29.6 °F 30.2 °F 87% 30.01 in 10.0 mi SW 4.6 mph - N/A   Overcast
3:55 PM 33.8 °F 28.6 °F 30.2 °F 87% 30.01 in 10.0 mi SW 5.8 mph - N/A   Overcast
4:15 PM 33.8 °F 27.7 °F 32.0 °F 93% 30.02 in 10.0 mi SSW 6.9 mph - N/A   Overcast
4:35 PM 32.0 °F 24.8 °F 32.0 °F 100% 30.01 in 10.0 mi SSW 8.1 mph - N/A   Overcast
4:55 PM 32.0 °F 24.8 °F 32.0 °F 100% 30.01 in 10.0 mi SW 8.1 mph - N/A   Overcast
5:15 PM 32.0 °F 25.6 °F 32.0 °F 100% 30.01 in 10.0 mi SW 6.9 mph - N/A   Overcast
5:35 PM 32.0 °F 24.8 °F 32.0 °F 100% 30.00 in 10.0 mi SW 8.1 mph - N/A   Overcast
5:55 PM 32.0 °F 24.8 °F 32.0 °F 100% 30.00 in 10.0 mi WSW 8.1 mph - N/A   Overcast
6:15 PM 33.8 °F 26.4 °F 30.2 °F 87% 30.00 in 10.0 mi WSW 9.2 mph - N/A   Overcast
6:35 PM 33.8 °F 26.4 °F 32.0 °F 93% 30.00 in 4.0 mi SW 9.2 mph - N/A Snow Light Snow
6:55 PM 32.0 °F 24.2 °F 32.0 °F 100% 30.00 in 4.0 mi WSW 9.2 mph - N/A Snow Light Snow
7:15 PM 32.0 °F 24.2 °F 32.0 °F 100% 30.00 in 0.8 mi WSW 9.2 mph - N/A Snow Light Snow
7:35 PM 32.0 °F 23.6 °F 32.0 °F 100% 30.00 in 4.0 mi WSW 10.4 mph - N/A Snow Light Snow
7:55 PM 32.0 °F 23.6 °F 32.0 °F 100% 29.98 in 10.0 mi WSW 10.4 mph - N/A   Overcast
8:15 PM 32.0 °F 23.0 °F 32.0 °F 100% 29.97 in 4.0 mi WSW 11.5 mph - N/A Snow Light Snow
8:35 PM 32.0 °F 23.6 °F 32.0 °F 100% 29.97 in 10.0 mi WSW 10.4 mph - N/A   Overcast
8:55 PM 32.0 °F 22.1 °F 32.0 °F 100% 29.98 in 10.0 mi WSW 13.8 mph 18.4 mph N/A   Mostly Cloudy
9:15 PM 32.0 °F 24.2 °F 32.0 °F 100% 29.97 in 10.0 mi SW 9.2 mph - N/A Snow Light Snow
9:35 PM 32.0 °F 23.0 °F 32.0 °F 100% 29.96 in 10.0 mi WSW 11.5 mph - N/A   Overcast
9:55 PM 32.0 °F 23.6 °F 32.0 °F 100% 29.96 in 10.0 mi WSW 10.4 mph - N/A   Mostly Cloudy
10:15 PM 32.0 °F 25.6 °F 32.0 °F 100% 29.96 in 10.0 mi SW 6.9 mph - N/A   Overcast
10:35 PM 32.0 °F 23.0 °F 32.0 °F 100% 29.95 in 10.0 mi SW 11.5 mph 16.1 mph N/A   Overcast
10:55 PM 32.0 °F 23.0 °F 32.0 °F 100% 29.94 in 10.0 mi SW 11.5 mph 17.3 mph N/A   Mostly Cloudy
11:15 PM 32.0 °F 22.1 °F 32.0 °F 100% 29.94 in 10.0 mi WSW 13.8 mph - N/A   Mostly Cloudy
11:35 PM 33.8 °F 24.3 °F 32.0 °F 93% 29.94 in 10.0 mi WSW 13.8 mph - N/A   Overcast